Time,TemperatureF,DewpointF,PressureIn,WindDirection,WindDirectionDegrees,WindSpeedMPH,WindSpeedGustMPH,Humidity,HourlyPrecipIn,Conditions,Clouds,dailyrainin,SoftwareType,DateUTC
2013-04-13 00:02:00,42.6,40.7,29.68,SE,135,2.2,-999.0,93,-99.99,,,0.00,Acu-Link.com,2013-04-13 04:02:00,
2013-04-13 00:17:00,42.3,40.7,29.69,East,90,2.2,-999.0,94,-99.99,,,0.00,Acu-Link.com,2013-04-13 04:17:00,
2013-04-13 00:32:00,42.4,40.8,29.69,ESE,112,1.7,-999.0,94,-99.99,,,0.00,Acu-Link.com,2013-04-13 04:32:00,
2013-04-13 00:47:00,42.3,40.4,29.70,SSW,202,1.7,-999.0,93,-99.99,,,0.00,Acu-Link.com,2013-04-13 04:47:00,
2013-04-13 01:02:00,42.3,40.4,29.69,ESE,112,2.2,-999.0,93,-99.99,,,0.01,Acu-Link.com,2013-04-13 05:02:00,
2013-04-13 01:17:00,42.3,40.1,29.69,West,270,2.7,-999.0,92,-99.99,,,0.01,Acu-Link.com,2013-04-13 05:17:00,
2013-04-13 01:33:00,42.1,39.9,29.71,ESE,112,3.7,-999.0,92,-99.99,,,0.01,Acu-Link.com,2013-04-13 05:33:00,
2013-04-13 01:48:00,41.9,40.0,29.71,SW,225,4.2,-999.0,93,-99.99,,,0.01,Acu-Link.com,2013-04-13 05:48:00,
2013-04-13 02:03:00,41.7,39.6,29.71,NNE,22,1.7,-999.0,92,-99.99,,,0.01,Acu-Link.com,2013-04-13 06:03:00,
2013-04-13 02:33:00,41.7,39.0,29.71,West,270,3.2,-999.0,90,-99.99,,,0.01,Acu-Link.com,2013-04-13 06:33:00,
2013-04-13 02:49:00,41.5,39.4,29.72,West,270,5.3,-999.0,92,-99.99,,,0.01,Acu-Link.com,2013-04-13 06:49:00,
2013-04-13 03:04:00,41.4,39.5,29.73,SE,135,3.7,-999.0,93,-99.99,,,0.01,Acu-Link.com,2013-04-13 07:04:00,
2013-04-13 03:19:00,41.5,39.1,29.74,ESE,112,3.7,-999.0,91,-99.99,,,0.01,Acu-Link.com,2013-04-13 07:19:00,
2013-04-13 03:34:00,41.5,39.1,29.74,East,90,2.7,-999.0,91,-99.99,,,0.01,Acu-Link.com,2013-04-13 07:34:00,
2013-04-13 03:50:00,41.7,39.3,29.75,ENE,67,2.2,-999.0,91,-99.99,,,0.01,Acu-Link.com,2013-04-13 07:50:00,
2013-04-13 04:20:00,41.9,39.5,29.76,East,90,2.2,-999.0,91,-99.99,,,0.01,Acu-Link.com,2013-04-13 08:20:00,
2013-04-13 04:36:00,41.7,39.0,29.76,SSW,202,2.7,-999.0,90,-99.99,,,0.01,Acu-Link.com,2013-04-13 08:36:00,
2013-04-13 04:51:00,41.7,38.7,29.76,West,270,3.2,-999.0,89,-99.99,,,0.01,Acu-Link.com,2013-04-13 08:51:00,
2013-04-13 05:36:00,42.1,39.1,29.76,South,180,1.7,-999.0,89,-99.99,,,0.01,Acu-Link.com,2013-04-13 09:36:00,
2013-04-13 05:52:00,41.7,38.7,29.76,SSW,202,3.2,-999.0,89,-99.99,,,0.01,Acu-Link.com,2013-04-13 09:52:00,
2013-04-13 06:07:00,41.9,38.9,29.76,ENE,67,2.2,-999.0,89,-99.99,,,0.01,Acu-Link.com,2013-04-13 10:07:00,
2013-04-13 06:22:00,41.5,38.8,29.78,West,270,1.7,-999.0,90,-99.99,,,0.01,Acu-Link.com,2013-04-13 10:22:00,
2013-04-13 06:37:00,41.2,38.5,29.78,West,270,2.2,-999.0,90,-99.99,,,0.01,Acu-Link.com,2013-04-13 10:37:00,
2013-04-13 06:52:00,41.2,38.8,29.79,West,270,3.2,-999.0,91,-99.99,,,0.01,Acu-Link.com,2013-04-13 10:52:00,
2013-04-13 07:07:00,41.2,38.8,29.79,ENE,67,0.0,-999.0,91,-99.99,,,0.01,Acu-Link.com,2013-04-13 11:07:00,
2013-04-13 07:23:00,41.4,39.3,29.80,South,180,0.0,-999.0,92,-99.99,,,0.01,Acu-Link.com,2013-04-13 11:23:00,
2013-04-13 08:08:00,41.9,38.9,29.81,West,270,3.2,-999.0,89,-99.99,,,0.01,Acu-Link.com,2013-04-13 12:08:00,
2013-04-13 08:23:00,41.9,38.9,29.81,West,270,3.2,-999.0,89,-99.99,,,0.01,Acu-Link.com,2013-04-13 12:23:00,
2013-04-13 08:39:00,42.4,39.1,29.82,WSW,247,1.7,-999.0,88,-99.99,,,0.01,Acu-Link.com,2013-04-13 12:39:00,
2013-04-13 08:54:00,43.3,39.7,29.82,WNW,292,2.2,-999.0,87,-99.99,,,0.01,Acu-Link.com,2013-04-13 12:54:00,
2013-04-13 09:09:00,44.1,39.9,29.83,WNW,292,1.7,-999.0,85,-99.99,,,0.01,Acu-Link.com,2013-04-13 13:09:00,
2013-04-13 09:24:00,45.1,39.9,29.84,West,270,1.1,-999.0,82,-99.99,,,0.01,Acu-Link.com,2013-04-13 13:24:00,
2013-04-13 09:40:00,46.4,39.9,29.84,West,270,3.2,-999.0,78,-99.99,,,0.01,Acu-Link.com,2013-04-13 13:40:00,
2013-04-13 09:55:00,46.4,39.9,29.84,WSW,247,2.7,-999.0,78,-99.99,,,0.01,Acu-Link.com,2013-04-13 13:55:00,
2013-04-13 10:10:00,46.4,39.9,29.85,West,270,3.2,-999.0,78,-99.99,,,0.01,Acu-Link.com,2013-04-13 14:10:00,
2013-04-13 10:25:00,46.6,39.1,29.85,NNW,337,2.7,-999.0,75,-99.99,,,0.01,Acu-Link.com,2013-04-13 14:25:00,
2013-04-13 10:40:00,47.3,39.4,29.85,West,270,3.7,-999.0,74,-99.99,,,0.01,Acu-Link.com,2013-04-13 14:40:00,
2013-04-13 10:55:00,47.5,39.3,29.85,WSW,247,3.7,-999.0,73,-99.99,,,0.01,Acu-Link.com,2013-04-13 14:55:00,
2013-04-13 11:41:00,48.9,35.6,29.84,West,270,5.8,-999.0,60,-99.99,,,0.01,Acu-Link.com,2013-04-13 15:41:00,
2013-04-13 11:57:00,50.2,34.2,29.84,WSW,247,5.3,-999.0,54,-99.99,,,0.01,Acu-Link.com,2013-04-13 15:57:00,
2013-04-13 12:12:00,50.7,35.1,29.84,West,270,1.7,-999.0,55,-99.99,,,0.01,Acu-Link.com,2013-04-13 16:12:00,
2013-04-13 12:27:00,51.3,33.8,29.84,West,270,3.7,-999.0,51,-99.99,,,0.01,Acu-Link.com,2013-04-13 16:27:00,
2013-04-13 12:58:00,52.9,32.7,29.82,West,270,4.7,-999.0,46,-99.99,,,0.01,Acu-Link.com,2013-04-13 16:58:00,
2013-04-13 13:28:00,54.1,34.3,29.81,South,180,4.2,-999.0,47,-99.99,,,0.01,Acu-Link.com,2013-04-13 17:28:00,
2013-04-13 13:43:00,55.4,33.9,29.81,West,270,7.3,-999.0,44,-99.99,,,0.01,Acu-Link.com,2013-04-13 17:43:00,
2013-04-13 14:14:00,54.9,34.5,29.81,West,270,7.3,-999.0,46,-99.99,,,0.01,Acu-Link.com,2013-04-13 18:14:00,
2013-04-13 14:29:00,56.8,34.5,29.81,North,0,6.8,-999.0,43,-99.99,,,0.01,Acu-Link.com,2013-04-13 18:29:00,
2013-04-13 14:45:00,55.9,33.7,29.80,West,270,6.8,-999.0,43,-99.99,,,0.01,Acu-Link.com,2013-04-13 18:45:00,
2013-04-13 15:00:00,56.8,34.0,29.80,WSW,247,5.3,-999.0,42,-99.99,,,0.01,Acu-Link.com,2013-04-13 19:00:00,
2013-04-13 15:15:00,55.9,34.3,29.80,West,270,4.2,-999.0,44,-99.99,,,0.01,Acu-Link.com,2013-04-13 19:15:00,
2013-04-13 15:30:00,58.3,35.9,29.80,West,270,10.4,-999.0,43,-99.99,,,0.01,Acu-Link.com,2013-04-13 19:30:00,
2013-04-13 15:45:00,56.3,35.8,29.80,West,270,4.7,-999.0,46,-99.99,,,0.01,Acu-Link.com,2013-04-13 19:45:00,
2013-04-13 16:00:00,56.5,35.4,29.81,West,270,8.3,-999.0,45,-99.99,,,0.01,Acu-Link.com,2013-04-13 20:00:00,
2013-04-13 16:15:00,56.1,36.7,29.80,NNE,22,4.7,-999.0,48,-99.99,,,0.01,Acu-Link.com,2013-04-13 20:15:00,
2013-04-13 16:30:00,56.3,36.3,29.80,West,270,3.7,-999.0,47,-99.99,,,0.01,Acu-Link.com,2013-04-13 20:30:00,
2013-04-13 16:46:00,56.7,36.2,29.80,South,180,5.3,-999.0,46,-99.99,,,0.01,Acu-Link.com,2013-04-13 20:46:00,
2013-04-13 17:16:00,55.8,37.4,29.81,West,270,4.2,-999.0,50,-99.99,,,0.01,Acu-Link.com,2013-04-13 21:16:00,
2013-04-13 17:31:00,55.6,39.2,29.82,West,270,4.7,-999.0,54,-99.99,,,0.01,Acu-Link.com,2013-04-13 21:31:00,
2013-04-13 17:47:00,55.8,38.4,29.82,West,270,5.3,-999.0,52,-99.99,,,0.01,Acu-Link.com,2013-04-13 21:47:00,
2013-04-13 18:02:00,58.6,38.4,29.81,East,90,2.7,-999.0,47,-99.99,,,0.01,Acu-Link.com,2013-04-13 22:02:00,
2013-04-13 18:32:00,56.8,39.9,29.83,SSW,202,2.2,-999.0,53,-99.99,,,0.01,Acu-Link.com,2013-04-13 22:32:00,
2013-04-13 18:48:00,56.5,40.1,29.84,West,270,3.7,-999.0,54,-99.99,,,0.01,Acu-Link.com,2013-04-13 22:48:00,
2013-04-13 19:03:00,57.0,41.0,29.83,NE,45,4.7,-999.0,55,-99.99,,,0.01,Acu-Link.com,2013-04-13 23:03:00,
2013-04-13 19:18:00,54.7,41.1,29.84,West,270,1.7,-999.0,60,-99.99,,,0.01,Acu-Link.com,2013-04-13 23:18:00,
2013-04-13 19:33:00,53.2,40.5,29.85,NE,45,3.7,-999.0,62,-99.99,,,0.01,Acu-Link.com,2013-04-13 23:33:00,
2013-04-13 19:49:00,52.9,39.4,29.85,North,0,4.7,-999.0,60,-99.99,,,0.01,Acu-Link.com,2013-04-13 23:49:00,
2013-04-13 20:04:00,53.1,38.7,29.86,West,270,2.7,-999.0,58,-99.99,,,0.01,Acu-Link.com,2013-04-14 00:04:00,
2013-04-13 20:19:00,53.4,36.7,29.87,South,180,0.0,-999.0,53,-99.99,,,0.01,Acu-Link.com,2013-04-14 00:19:00,
2013-04-13 20:34:00,53.8,33.5,29.87,West,270,2.7,-999.0,46,-99.99,,,0.01,Acu-Link.com,2013-04-14 00:34:00,
2013-04-13 20:49:00,54.0,34.2,29.88,West,270,1.7,-999.0,47,-99.99,,,0.01,Acu-Link.com,2013-04-14 00:49:00,
2013-04-13 21:05:00,53.6,33.9,29.89,West,270,3.7,-999.0,47,-99.99,,,0.01,Acu-Link.com,2013-04-14 01:05:00,
2013-04-13 21:20:00,53.6,33.9,29.90,WSW,247,1.1,-999.0,47,-99.99,,,0.01,Acu-Link.com,2013-04-14 01:20:00,
2013-04-13 21:35:00,53.2,33.5,29.90,ENE,67,1.7,-999.0,47,-99.99,,,0.01,Acu-Link.com,2013-04-14 01:35:00,
2013-04-13 21:51:00,53.2,33.5,29.91,East,90,1.1,-999.0,47,-99.99,,,0.01,Acu-Link.com,2013-04-14 01:51:00,
2013-04-13 22:06:00,53.2,33.0,29.90,ESE,112,1.1,-999.0,46,-99.99,,,0.01,Acu-Link.com,2013-04-14 02:06:00,
2013-04-13 22:22:00,53.1,32.9,29.91,South,180,1.7,-999.0,46,-99.99,,,0.01,Acu-Link.com,2013-04-14 02:22:00,
2013-04-13 22:37:00,53.1,32.9,29.91,East,90,0.0,-999.0,46,-99.99,,,0.01,Acu-Link.com,2013-04-14 02:37:00,
2013-04-13 22:52:00,52.9,32.1,29.91,West,270,0.0,-999.0,45,-99.99,,,0.01,Acu-Link.com,2013-04-14 02:52:00,
2013-04-13 23:07:00,52.5,31.8,29.92,West,270,0.0,-999.0,45,-99.99,,,0.01,Acu-Link.com,2013-04-14 03:07:00,
2013-04-13 23:22:00,52.9,32.7,29.92,NNE,22,0.0,-999.0,46,-99.99,,,0.01,Acu-Link.com,2013-04-14 03:22:00,
2013-04-13 23:37:00,52.3,39.3,29.92,North,0,1.7,-999.0,61,-99.99,,,0.01,Acu-Link.com,2013-04-14 03:37:00,
2013-04-13 23:53:00,52.2,39.6,29.92,West,270,2.2,-999.0,62,-99.99,,,0.01,Acu-Link.com,2013-04-14 03:53:00,